Location: Brede
(50.9167°N, 0.6000°E)
Time: 07:33:03
(UTC+00:00)

Altair - Pass Details

Date: 31 July 2021
Orbit: 1501 x 1682 km, 47.2° (Epoch: 18 September)

Event Time Altitude Azimuth Distance (km) Brightness Sun altitude
Exits shadow 02:24:33 18° 220° (SW) 3,120 8.5 -14.3°
Maximum altitude 02:31:25 51° 153° (SSE) 1,852 7.7 -13.7°
Drops below altitude 10° 02:40:08 10° 82° (E) 3,657 10.2 -12.8°
Sets 02:43:14 0° 77° (ENE) 4,638 10.9 -12.5°
